This is the latest recevied weather packets stored in our database for station/object KI5MKI. If no packets are shown the sender has not sent any weather packets the latest 10 day(s).
| Time | Temp. | Humidity | Pressure | Rain* | Wind** | Luminosity | Snow |
|---|---|---|---|---|---|---|---|
| 1777992302 | 22.78° C | 80% | 1006 hPa | 0 mm | - | 247 W/m² | - |
| 1777991999 | 22.78° C | 81% | 1006 hPa | 0 mm | - | 309 W/m² | - |
| 1777991697 | 22.22° C | 81% | 1005.8 hPa | 0 mm | - | 244 W/m² | - |
| 1777991394 | 22.22° C | 81% | 1006.1 hPa | 0 mm | - | 216 W/m² | - |
| 1777991091 | 22.22° C | 82% | 1005.8 hPa | 0 mm | - | 175 W/m² | - |
| 1777990788 | 22.22° C | 82% | 1006 hPa | 0 mm | - | 169 W/m² | - |
| 1777990485 | 22.22° C | 82% | 1006 hPa | 0 mm | - | 162 W/m² | - |
| 1777989879 | 21.67° C | 82% | 1006.2 hPa | 0 mm | - | 127 W/m² | - |
| 1777989575 | 21.67° C | 83% | 1006.4 hPa | 0 mm | - | 118 W/m² | - |
| 1777989272 | 21.67° C | 83% | 1006.1 hPa | 0 mm | - | 102 W/m² | - |
| 1777988968 | 21.67° C | 83% | 1005.9 hPa | 0 mm | - | 120 W/m² | - |
| 1777988665 | 21.67° C | 83% | 1005.8 hPa | 0 mm | - | 92 W/m² | - |
| 1777988361 | 21.67° C | 83% | 1006.1 hPa | 0 mm | - | 90 W/m² | - |
| 1777988059 | 21.67° C | 83% | 1006.2 hPa | 0 mm | - | 68 W/m² | - |
| 1777987754 | 21.67° C | 83% | 1006.2 hPa | 0 mm | - | 50 W/m² | - |
| 1777987452 | 21.67° C | 84% | 1006.2 hPa | 0 mm | - | 58 W/m² | - |
| 1777987149 | 21.11° C | 84% | 1005.9 hPa | 0 mm | - | 81 W/m² | - |
| 1777986846 | 21.11° C | 84% | 1005.9 hPa | 0 mm | - | 57 W/m² | - |
| 1777986544 | 21.11° C | 84% | 1006 hPa | 0 mm | - | 67 W/m² | - |
| 1777986241 | 21.11° C | 84% | 1005.8 hPa | 0 mm | - | 45 W/m² | - |
| 1777985938 | 21.11° C | 84% | 1005.8 hPa | 0 mm | - | 33 W/m² | - |
| 1777985636 | 21.11° C | 84% | 1006.1 hPa | 0 mm | - | 25 W/m² | - |
| 1777985332 | 21.11° C | 84% | 1006 hPa | 0 mm | - | 26 W/m² | - |
| 1777985029 | 21.11° C | 84% | 1005.9 hPa | 0 mm | - | 22 W/m² | - |
| 1777984725 | 21.11° C | 84% | 1005.7 hPa | 0 mm | - | 26 W/m² | - |
* Rain latest hour (hover to see other rain measurements)
** Current wind speed in m/s (hover to see current wind gust speed)